Weather History for Duluth, MN

Change the Weather History Date:

Thursday, December 5, 2013

  Actual Average Record
Temperature  
Mean Temperature 9 °F 18 °F  
Max Temperature 20 °F 26 °F 52 °F (1913)
Min Temperature -3 °F 12 °F -13 °F (1964)
Degree Days  
Heating Degree Days 56 47  
Month to date heating degree days 207 229  
Since 1 July heating degree days 2164 2442  
Cooling Degree Days 0 0  
Month to date cooling degree days 0 0  
Year to date cooling degree days 375 204  
Moisture  
Dew Point 1 °F    
Average Humidity 77    
Maximum Humidity 84    
Minimum Humidity 69    
Precipitation  
Precipitation T in 0.04 in 1.18 in (1909)
Month to date precipitation 2.09 0.23  
Year to date precipitation 29.69 29.98  
Snow  
Snow T in 0.60 in 6.60 in (1950)
Month to date snowfall 23.3 2.7  
Since 1 July snowfall 28.3 18.8  
Snow Depth 18.00 in    
Sea Level Pressure  
Sea Level Pressure 29.81 in    
Wind  
Wind Speed 21 mph (West)    
Max Wind Speed 30 mph    
Max Gust Speed 36 mph    
Visibility 5 miles    
Events Snow    
T = Trace of Precipitation, MM = Missing Value Source: NWS Daily Summary

Daily Weather History Graph

Daily Weather History Graph

Search for Another Location

Airport:

Trip Planner

Search our weather history database for the weather conditions in past years. The results will help you decide how hot, cold, wet, or windy it might be!

Date:

Astronomy

Dec. 05, 2013 Rise Set
Actual Time 7:38 AM CST 4:20 PM CST
Civil Twilight 7:03 AM CST 4:55 PM CST
Nautical Twilight 6:25 AM CST 5:33 PM CST
Astronomical Twilight 5:48 AM CST 6:10 PM CST
Moon 9:53 AM CST (12/5) 7:48 PM CST (12/5)
Length of Visible Light 9h 52m
Length of Day
8h 42m
Waxing Crescent, 11% of the Moon is Illuminated
Dec 5
Waxing Crescent
Dec 9
First Quarter
Dec 17
Full
Dec 25
Last Quarter
Jan 1
New

Hourly Weather History & Observations

Time (CST) Temp. Windchill Dew Point Humidity Pressure Visibility Wind Dir Wind Speed Gust Speed Precip Events Conditions
12:55 AM 19.0 °F 5.0 °F 14.0 °F 81% 29.48 in 10.0 mi West 15.0 mph - 0.00 in   Overcast
1:05 AM 19.4 °F 5.0 °F 12.2 °F 74% 29.41 in 9.0 mi West 16.1 mph 21.9 mph N/A   Overcast
1:14 AM 17.6 °F 1.7 °F 12.2 °F 79% 29.41 in 8.0 mi WNW 18.4 mph - 0.00 in Snow Light Snow
1:55 AM 18.0 °F 2.2 °F 12.9 °F 81% 29.50 in 4.0 mi West 18.4 mph 27.6 mph 0.00 in Snow Light Snow
2:55 AM 17.1 °F -0.3 °F 10.9 °F 77% 29.53 in 4.0 mi West 21.9 mph 35.7 mph 0.00 in Snow Light Snow
3:12 AM 17.6 °F 2.2 °F 10.4 °F 73% 29.47 in 3.0 mi West 17.3 mph 29.9 mph 0.00 in Snow Light Snow
3:27 AM 15.8 °F -1.9 °F 10.4 °F 79% 29.47 in 2.5 mi West 21.9 mph - 0.00 in Snow Light Snow
3:42 AM 15.8 °F -4.1 °F 8.6 °F 73% 29.47 in 1.8 mi West 28.8 mph 35.7 mph 0.00 in Snow Light Snow
3:55 AM 15.1 °F -1.6 °F 9.0 °F 77% 29.55 in 2.0 mi West 18.4 mph 28.8 mph 0.00 in Snow Light Snow
4:08 AM 15.8 °F -2.3 °F 8.6 °F 73% 29.50 in 1.2 mi West 23.0 mph 32.2 mph 0.00 in Snow Light Snow
4:55 AM 14.0 °F -3.9 °F 8.1 °F 77% 29.62 in 1.8 mi West 20.7 mph - 0.00 in Snow Light Snow
5:32 AM 12.2 °F -7.9 °F 6.8 °F 79% 29.56 in 2.0 mi West 25.3 mph 33.4 mph 0.00 in Snow Light Snow
5:55 AM 12.0 °F -7.3 °F 5.0 °F 73% 29.65 in 1.8 mi West 23.0 mph 32.2 mph 0.00 in Snow Light Snow
6:07 AM 12.2 °F -7.5 °F 5.0 °F 73% 29.58 in 3.0 mi West 24.2 mph 31.1 mph 0.00 in Snow Light Snow
6:25 AM 10.4 °F -8.6 °F 5.0 °F 79% 29.60 in 2.5 mi West 20.7 mph 31.1 mph 0.00 in Snow Light Snow
6:37 AM 10.4 °F -10.3 °F 3.2 °F 73% 29.61 in 3.0 mi West 25.3 mph 33.4 mph 0.00 in Snow Light Snow
6:55 AM 10.0 °F -10.4 °F 3.0 °F 73% 29.69 in 5.0 mi West 24.2 mph 32.2 mph 0.00 in Snow Blowing Snow
7:55 AM 8.1 °F -12.6 °F 1.9 °F 76% 29.74 in 4.0 mi West 23.0 mph 31.1 mph N/A Snow Blowing Snow
8:31 AM 6.8 °F -14.7 °F -0.4 °F 72% 29.68 in 7.0 mi West 24.2 mph 34.5 mph 0.00 in   Scattered Clouds
8:55 AM 7.0 °F -14.9 °F -0.0 °F 73% 29.77 in 7.0 mi West 25.3 mph 31.1 mph N/A   Scattered Clouds
9:55 AM 6.1 °F -14.3 °F -0.0 °F 76% 29.83 in 4.0 mi West 20.7 mph 31.1 mph 0.00 in Snow Blowing Snow
10:52 AM 6.8 °F -14.3 °F -0.4 °F 72% 29.77 in 6.0 mi West 23.0 mph 32.2 mph N/A Snow Blowing Snow
10:55 AM 7.0 °F -15.6 °F -0.9 °F 70% 29.86 in 6.0 mi West 27.6 mph 33.4 mph N/A Snow Blowing Snow
11:55 AM 8.1 °F -13.0 °F -0.0 °F 70% 29.89 in 4.0 mi West 24.2 mph - N/A Snow Blowing Snow
12:28 PM 8.6 °F -10.0 °F 1.4 °F 73% 29.81 in 2.5 mi West 18.4 mph 29.9 mph 0.00 in Snow Light Snow
12:55 PM 8.1 °F -12.6 °F -0.0 °F 70% 29.91 in 2.5 mi West 23.0 mph 29.9 mph 0.00 in Snow Light Snow
1:02 PM 8.6 °F -11.4 °F -0.4 °F 67% 29.81 in 3.0 mi West 21.9 mph 32.2 mph 0.00 in Snow Light Snow
1:29 PM 8.6 °F -10.0 °F -0.4 °F 67% 29.83 in 3.0 mi West 18.4 mph 33.4 mph 0.00 in Snow Light Snow
1:55 PM 8.1 °F -13.4 °F -0.9 °F 67% 29.94 in 5.0 mi West 25.3 mph 32.2 mph 0.00 in Snow Light Snow
2:02 PM 8.6 °F -12.7 °F -0.4 °F 67% 29.84 in 5.0 mi West 25.3 mph 31.1 mph 0.00 in Snow Light Snow
2:09 PM 8.6 °F -11.9 °F -0.4 °F 67% 29.85 in 6.0 mi West 23.0 mph 29.9 mph 0.00 in Snow Blowing Snow
2:55 PM 8.1 °F -10.7 °F -0.0 °F 70% 29.96 in 6.0 mi West 18.4 mph 27.6 mph 0.00 in Snow Blowing Snow
3:55 PM 7.0 °F -12.1 °F -0.9 °F 70% 30.00 in 5.0 mi West 18.4 mph 25.3 mph N/A Snow Blowing Snow
4:28 PM 6.8 °F -11.3 °F -0.4 °F 72% 29.90 in 5.0 mi West 16.1 mph - N/A Snow Blowing Snow
4:55 PM 7.0 °F -12.6 °F -0.9 °F 70% 30.01 in 5.0 mi WNW 19.6 mph 28.8 mph N/A Snow Blowing Snow
5:55 PM 6.1 °F -14.8 °F -2.0 °F 69% 30.04 in 7.0 mi WNW 21.9 mph 27.6 mph N/A Snow Blowing Snow
6:55 PM 3.9 °F -17.6 °F -4.0 °F 70% 30.08 in 7.0 mi WNW 21.9 mph 27.6 mph N/A   Overcast
7:55 PM 3.0 °F -15.5 °F -4.0 °F 73% 30.13 in 8.0 mi WNW 15.0 mph 24.2 mph N/A   Overcast
8:55 PM 1.0 °F -17.3 °F -6.0 °F 72% 30.17 in 10.0 mi West 13.8 mph - N/A   Mostly Cloudy
9:27 PM -0.4 °F -19.2 °F -7.6 °F 72% 30.05 in 10.0 mi West 13.8 mph - N/A   Partly Cloudy
9:55 PM -0.9 °F -19.9 °F -7.1 °F 75% 30.19 in 10.0 mi West 13.8 mph - N/A   Partly Cloudy
10:14 PM -0.4 °F -19.9 °F -7.6 °F 72% 30.07 in 10.0 mi West 15.0 mph - N/A   Mostly Cloudy
10:23 PM -0.4 °F -18.4 °F -7.6 °F 72% 30.07 in 10.0 mi WNW 12.7 mph - N/A   Scattered Clouds
10:55 PM -2.0 °F -21.2 °F -8.0 °F 76% 30.20 in 10.0 mi West 13.8 mph - N/A   Clear
11:55 PM -2.9 °F -23.1 °F -9.0 °F 75% 30.23 in 10.0 mi West 15.0 mph - N/A   Partly Cloudy